Home   Weather   Caguas   Past weeks

Flag for Puerto Rico Past Weather in Caguas, Puerto Rico — Yesterday and Last 2 Weeks

Now
84 °F

Passing clouds.


Feels Like: 94 °F
Forecast: 76 / 89 °F
Wind: 5 mph from Southeast

Location: Luis Munoz Marin

Current Time: Sep 24, 2016 at 8:28:47 PM

Latest Report: Sep 24, 2016 at 7:56 PM


Visibility: 10 mi

Pressure: 29.98 "Hg

Humidity: 80%

Dew Point: 77 °F

Location of CaguasLocation

Past Weather in Caguas — Graph

°F

Caguas Temperature Yesterday

Maximum temperature yesterday: 93 °F (at 12:56 PM)
Minimum temperature yesterday: 77 °F (at 5:56 AM)
Average temperature yesterday: 84 °F

High & Low Weather Summary for the Past Weeks

 TemperatureHumidityPressure
High93 °F (Sep 23, 12:56 PM)100% (Sep 11, 11:56 PM)30.08 "Hg (Sep 11, 11:56 PM)
Low75 °F (Sep 12, 4:56 AM)52% (Sep 23, 12:56 PM)29.57 "Hg (Sep 20, 7:56 AM)
Average83 °F80%29.96 "Hg
* Reported Sep 9 6:56 PM — Sep 24 6:56 PM, Caguas, Weather by CustomWeather, © 2016

Note: Actual official high and low records may vary slightly from our data, if they occured in-between our weather recording intervals... More about our weather records

Advertising

Caguas Weather History for the Previous 24 Hours

Scroll right to see more
 ConditionsComfort  
Time TempWeatherWind HumidityBarometerVisibility
6:56 PM
Sat, Sep 24
84 °FScattered clouds.8 mph80%29.96 "Hg10 mi
5:56 PM85 °FScattered clouds.9 mph80%29.95 "Hg10 mi
4:56 PM85 °FScattered clouds.13 mph80%29.94 "Hg10 mi
3:56 PM86 °FScattered clouds.13 mph77%29.94 "Hg10 mi
2:56 PM89 °FScattered clouds.17 mph75%29.94 "Hg10 mi
1:56 PM88 °FScattered clouds.15 mph80%29.95 "Hg10 mi
12:56 PM86 °FScattered clouds.8 mph77%29.98 "Hg10 mi
11:56 AM87 °FScattered clouds.12 mph75%30.00 "Hg10 mi
10:56 AM88 °FScattered clouds.10 mph73%30.03 "Hg10 mi
9:56 AM86 °FScattered clouds.7 mph75%30.03 "Hg10 mi
8:56 AM87 °FScattered clouds.No wind69%30.02 "Hg10 mi
7:56 AM84 °FScattered clouds.No wind80%30.01 "Hg10 mi
6:56 AM81 °FPassing clouds.No wind85%30.00 "Hg10 mi
5:56 AM79 °FPassing clouds.3 mph90%29.99 "Hg10 mi
4:56 AM80 °FPassing clouds.No wind87%29.97 "Hg10 mi
3:56 AM80 °FClear.No wind87%29.97 "Hg10 mi
2:56 AM79 °FClear.3 mph94%29.97 "Hg10 mi
1:56 AM81 °FClear.3 mph88%29.98 "Hg10 mi
12:56 AM81 °FPassing clouds.No wind88%30.00 "Hg10 mi
11:56 PM
Fri, Sep 23
83 °FPassing clouds.3 mph82%30.01 "Hg10 mi
10:56 PM83 °FPassing clouds.No wind82%30.02 "Hg10 mi
9:56 PM84 °FPassing clouds.3 mph80%30.01 "Hg10 mi
8:56 PM85 °FPassing clouds.6 mph77%30.00 "Hg10 mi
Weather by CustomWeather, © 2016

See weather overviewHow to use our weather pages